Terminal Aerodrome Forecast
Issued by NWS

Home | Current Version | Previous Version | Text Only | Print | Product List | Glossary On
Versions: 1 2 3 4 5 6 7 8 9 10 11 12 13 14 15 16 17 18 19 20 21
000
FTUS42 KFFC 311415 AAA
TAFPDK
TAF AMD
KPDK 311415Z 3114/0112 09005KT P6SM OVC030
     FM311600 VRB04KT P6SM BKN035
     FM311900 VRB04KT P6SM SCT040
     FM010000 00000KT P6SM SCT045 SCT250=

USA.gov is the U.S. government's official web portal to all federal, state and local government web resources and services.